Point Lay, AK

12:03 AM AKDT on August 24, 2017 (GMT -0800)
Point Lay

Weather History for PPIZ - October, 2013

Change the Weather History Date:

Thursday, October 17, 2013

  Actual Average Record
Temperature  
Mean Temperature 33 °F -  
Max Temperature 35 °F 18 °F 39 °F (2004)
Min Temperature 31 °F 11 °F -5 °F (2001)
Degree Days  
Heating Degree Days 32    
Moisture  
Dew Point 32 °F    
Average Humidity 93    
Maximum Humidity 96    
Minimum Humidity 87    
Precipitation  
Precipitation 0.02 in - - ()
Sea Level Pressure  
Sea Level Pressure 29.55 in    
Wind  
Wind Speed 6 mph (ESE)    
Max Wind Speed 12 mph    
Max Gust Speed -    
Visibility 10 miles    
Events Rain    
Averages and records for this station are not official NWS values.
T = Trace of Precipitation, MM = Missing Value Source: NWS Daily Summary

Daily Weather History Graph

Daily Weather History Graph

Search for Another Location

Airport or City:

Trip Planner

Search our weather history database for the weather conditions in past years. The results will help you decide how hot, cold, wet, or windy it might be!

Date:

Astronomy

Oct. 17, 2013 Rise Set
Actual Time 10:14 AM AKDT 6:58 PM AKDT
Civil Twilight 9:11 AM AKDT 8:01 PM AKDT
Nautical Twilight 8:01 AM AKDT 9:11 PM AKDT
Astronomical Twilight 6:49 AM AKDT 10:22 PM AKDT
Moon 6:32 PM AKDT (10/17) 8:34 AM AKDT (10/17)
Length of Visible Light 10h 50m
Length of Day
8h 44m
Waxing Gibbous, 98% of the Moon is Illuminated
Oct 17
Waxing Gibbous
Oct 18
Full
Oct 26
Last Quarter
Nov 3
New
Nov 9
First Quarter

Hourly Weather History & Observations

Time (AKDT) Temp. Windchill Dew Point Humidity Pressure Visibility Wind Dir Wind Speed Gust Speed Precip Events Conditions
12:56 AM 32.9 °F 28.5 °F 32.0 °F 96% 29.67 in 10.0 mi ENE 4.6 mph - N/A   Mostly Cloudy
1:36 AM 33.8 °F 29.6 °F 32.0 °F 93% 29.66 in 10.0 mi ESE 4.6 mph - N/A   Partly Cloudy
1:56 AM 32.9 °F 29.8 °F 32.0 °F 96% 29.66 in 10.0 mi East 3.5 mph - N/A   Clear
2:56 AM 32.9 °F 27.5 °F 32.0 °F 96% 29.67 in 10.0 mi ESE 5.8 mph - N/A   Mostly Cloudy
3:56 AM 31.1 °F 24.5 °F 30.0 °F 96% 29.66 in 10.0 mi SE 6.9 mph - N/A   Scattered Clouds
4:56 AM 32.0 °F 24.2 °F 31.1 °F 96% 29.65 in 10.0 mi ESE 9.2 mph - N/A   Clear
5:56 AM 34.0 °F 28.0 °F 32.0 °F 92% 29.64 in 10.0 mi ESE 6.9 mph - N/A   Mostly Cloudy
6:56 AM 35.6 °F 29.2 °F 32.0 °F 87% 29.62 in 10.0 mi ESE 8.1 mph - N/A   Mostly Cloudy
7:56 AM 34.0 °F 25.5 °F 32.0 °F 92% 29.62 in 10.0 mi ESE 11.5 mph - N/A   Mostly Cloudy
8:56 AM 34.0 °F 27.2 °F 32.0 °F 92% 29.60 in 10.0 mi ESE 8.1 mph - N/A   Overcast
9:56 AM 34.9 °F 29.9 °F 32.0 °F 89% 29.58 in 10.0 mi East 5.8 mph - N/A   Mostly Cloudy
10:56 AM 34.9 °F 29.0 °F 32.0 °F 89% 29.58 in 10.0 mi ESE 6.9 mph - N/A   Overcast
11:56 AM 34.0 °F 28.0 °F 32.0 °F 92% 29.57 in 10.0 mi SE 6.9 mph - 0.00 in   Mostly Cloudy
12:56 PM 34.9 °F 29.0 °F 32.0 °F 89% 29.56 in 10.0 mi SE 6.9 mph - 0.00 in   Partly Cloudy
1:56 PM 34.9 °F 30.8 °F 32.0 °F 89% 29.53 in 10.0 mi ESE 4.6 mph - N/A   Partly Cloudy
2:56 PM 32.9 °F 29.8 °F 31.1 °F 93% 29.51 in 10.0 mi East 3.5 mph - N/A   Partly Cloudy
3:56 PM 32.9 °F 28.5 °F 31.1 °F 93% 29.49 in 10.0 mi NE 4.6 mph - N/A   Clear
4:56 PM 32.9 °F 26.7 °F 32.0 °F 96% 29.48 in 10.0 mi ENE 6.9 mph - N/A   Partly Cloudy
5:56 PM 32.9 °F 29.8 °F 31.1 °F 93% 29.45 in 10.0 mi NE 3.5 mph - N/A   Clear
6:56 PM 32.9 °F 27.5 °F 31.1 °F 93% 29.43 in 10.0 mi ENE 5.8 mph - N/A   Scattered Clouds
7:56 PM 32.9 °F - 31.1 °F 93% 29.43 in 10.0 mi Calm Calm - N/A   Overcast
8:56 PM 32.9 °F 27.5 °F 31.1 °F 93% 29.42 in 10.0 mi South 5.8 mph - N/A   Mostly Cloudy
9:56 PM 33.8 °F - 32.0 °F 93% 29.40 in 10.0 mi Calm Calm - N/A   Overcast
10:56 PM 32.9 °F 27.5 °F 32.0 °F 96% 29.41 in 9.0 mi South 5.8 mph - 0.02 in Rain Light Rain
11:56 PM 34.0 °F 28.8 °F 32.9 °F 96% 29.41 in 10.0 mi SSW 5.8 mph - 0.00 in   Overcast